This demonstration page uses our WeatherBlox Daily Observations layout. Learn more.

Left ArrowRight Arrow

39.08367, -84.50855

Hourly Observations for February 1, 2018

Temp ( °F °C ) Dew Point ( °F °C ) Humidity (%) Winds ( mph kmh ) Pressure ( in mb ) Visibility ( mi km ) Precip ( " mm )
12:53 am 00:53 Clear 46 7.8 28 -2.2 50 50 SW 10 17 29.92 1013 10 16.0934 0 0
1:53 am 01:53 Clear 46 7.8 28 -2.2 50 50 SSW 12 19 29.91 1013 10 16.0934 0 0
2:53 am 02:53 Clear 47 8.3 27 -2.8 46 46 SW 13 20 29.91 1013 10 16.0934 0 0
3:53 am 03:53 Clear 46 7.8 27 -2.8 47 47 SW 10 17 29.91 1013 10 16.0934 0 0
4:53 am 04:53 Clear 46 7.8 27 -2.8 47 47 SSW 10 17 29.89 1012 10 16.0934 0 0
5:53 am 05:53 Clear 46 7.8 28 -2.2 50 50 SW 10 17 29.9 1013 10 16.0934 0 0
6:53 am 06:53 Mostly Cloudy 45 7.2 28 -2.2 52 52 SW 8 13 29.91 1013 10 16.0934 0 0
7:53 am 07:53 Cloudy 46 7.8 29 -1.7 51 51 SW 8 13 29.91 1013 10 16.0934 0 0
8:53 am 08:53 Cloudy 47 8.3 30 -1.1 52 52 SW 9 15 29.93 1014 10 16.0934 0 0
9:53 am 09:53 Cloudy 47 8.3 31 -0.6 54 54 WSW 12 19 29.95 1014 10 16.0934 0 0
10:53 am 10:53 Cloudy with Light Rain 46 7.8 33 0.6 61 61 W 16 26 29.98 1015 10 16.0934 0 0.0254
11:53 am 11:53 Cloudy 48 8.9 32 0 54 54 W 9 15 29.99 1016 10 16.0934 0 0.0254
12:53 pm 12:53 Cloudy 47 8.3 24 -4.4 41 41 W 14 22 29.97 1015 10 16.0934 0 0
1:53 pm 13:53 Cloudy 46 7.8 23 -5 40 40 W 9 15 29.97 1015 10 16.0934 0 0
2:53 pm 14:53 Cloudy 42 5.6 29 -1.7 60 60 WNW 14 22 30.01 1016 10 16.0934 0 0
3:50 pm 15:50 Cloudy with Light Rain 37 3 34 1 87 87 NW 9 15 30.06 1018 7 11.26538 0 0.0254
3:53 pm 15:53 Cloudy with Light Rain 37 2.8 33 0.6 86 86 WNW 10 17 30.05 1018 6 9.65604 0 0.0254
4:53 pm 16:53 Cloudy with Light Rain 35 1.7 33 0.6 93 93 WNW 8 13 30.06 1018 7 11.26538 0.01 0.254
5:22 pm 17:22 Cloudy with Light Snow 35 1.7 32 0 89 89 VRB 7 11 30.09 1019 6 9.65604 0 0.0254
5:53 pm 17:53 Cloudy with Light Snow 33 0.6 29 -1.7 85 85 NW 9 15 30.11 1020 5 8.0467 0.01 0.254
6:18 pm 18:18 Cloudy 33 0.6 26 -3.3 75 75 W 12 19 30.15 1021 10 16.0934 0 0.0254
6:53 pm 18:53 Mostly Cloudy 33 0.6 25 -3.9 72 72 WNW 8 13 30.14 1021 10 16.0934 0 0.0254
7:53 pm 19:53 Partly Cloudy 31 -0.6 21 -6.1 67 67 NW 12 19 30.17 1022 10 16.0934 0 0
8:53 pm 20:53 Partly Cloudy 29 -1.7 17 -8.3 61 61 NW 14 22 30.21 1023 10 16.0934 0 0
9:53 pm 21:53 Mostly Clear 26 -3.3 15 -9.4 63 63 NW 15 24 30.24 1024 10 16.0934 0 0
10:53 pm 22:53 Clear 25 -3.9 13 -10.6 60 60 NW 13 20 30.28 1025 10 16.0934 0 0
11:53 pm 23:53 Mostly Cloudy 24 -4.4 12 -11.1 60 60 WNW 9 15 30.3 1026 10 16.0934 0 0

Powered by AerisWeather